Weather History for Jackson, WY

Change the Weather History Date:

Wednesday, January 16, 2013

  Actual Average Record
Temperature  
Mean Temperature 2 °F -  
Max Temperature 12 °F 28 °F 44 °F (1974)
Min Temperature -9 °F 5 °F -21 °F (1987)
Degree Days  
Heating Degree Days 64    
Moisture  
Dew Point 1 °F    
Average Humidity 89    
Maximum Humidity 100    
Minimum Humidity 79    
Precipitation  
Precipitation 0.00 in - - ()
Sea Level Pressure  
Sea Level Pressure 30.48 in    
Wind  
Wind Speed 2 mph (NNE)    
Max Wind Speed 12 mph    
Max Gust Speed -    
Visibility 9 miles    
Events Snow    
Averages and records for this station are not official NWS values.
T = Trace of Precipitation, MM = Missing Value Source: NWS Daily Summary

Daily Weather History Graph

Daily Weather History Graph

Search for Another Location

Airport:

Trip Planner

Search our weather history database for the weather conditions in past years. The results will help you decide how hot, cold, wet, or windy it might be!

Date:

Astronomy

Jan. 16, 2013 Rise Set
Actual Time 7:52 AM MST 5:13 PM MST
Civil Twilight 7:20 AM MST 5:45 PM MST
Nautical Twilight 6:45 AM MST 6:20 PM MST
Astronomical Twilight 6:11 AM MST 6:54 PM MST
Moon 10:18 AM MST (1/16) 11:21 PM MST (1/16)
Length of Visible Light 10h 24m
Length of Day
9h 21m
Waxing Crescent, 29% of the Moon is Illuminated
Jan 16
Waxing Crescent
Jan 18
First Quarter
Jan 26
Full
Feb 3
Last Quarter
Feb 10
New

Hourly Weather History & Observations

Time (MST) Temp. Windchill Dew Point Humidity Pressure Visibility Wind Dir Wind Speed Gust Speed Precip Events Conditions
12:15 AM 6.8 °F - 3.2 °F 85% 30.45 in 4.0 mi Calm Calm - N/A   Overcast
12:35 AM 5.0 °F - 3.2 °F 92% 30.45 in 4.0 mi Calm Calm - N/A   Overcast
12:55 AM 6.8 °F -2.0 °F 3.2 °F 85% 30.45 in 2.5 mi North 4.6 mph - N/A   Overcast
1:15 AM 6.8 °F -2.0 °F 3.2 °F 85% 30.44 in 2.0 mi NNW 4.6 mph - N/A   Overcast
1:35 AM 6.8 °F -0.1 °F 3.2 °F 85% 30.44 in 3.0 mi North 3.5 mph - N/A   Overcast
1:55 AM 6.8 °F -0.1 °F 3.2 °F 85% 30.45 in 5.0 mi WNW 3.5 mph - N/A   Overcast
2:15 AM 6.8 °F -0.1 °F 3.2 °F 85% 30.45 in 9.0 mi North 3.5 mph - N/A   Overcast
2:35 AM 6.8 °F -0.1 °F 3.2 °F 85% 30.45 in 10.0 mi South 3.5 mph - N/A   Overcast
2:55 AM 5.0 °F -2.1 °F 3.2 °F 92% 30.47 in 10.0 mi SSE 3.5 mph - N/A   Overcast
3:15 AM 6.8 °F - 3.2 °F 85% 30.47 in 10.0 mi Calm Calm - N/A   Overcast
3:35 AM 6.8 °F - 3.2 °F 85% 30.48 in 10.0 mi Calm Calm - N/A   Overcast
3:55 AM 3.2 °F - 3.2 °F 100% 30.48 in 10.0 mi Calm Calm - N/A   Overcast
4:15 AM 5.0 °F - 3.2 °F 92% 30.47 in 10.0 mi Calm Calm - N/A   Overcast
4:35 AM 5.0 °F - 3.2 °F 92% 30.47 in 10.0 mi Calm Calm - N/A   Overcast
4:55 AM 5.0 °F - 3.2 °F 92% 30.46 in 10.0 mi Calm Calm - N/A   Overcast
5:15 AM 5.0 °F - 3.2 °F 92% 30.47 in 8.0 mi Calm Calm - N/A   Overcast
5:35 AM 5.0 °F - 3.2 °F 92% 30.47 in 10.0 mi Calm Calm - N/A   Overcast
5:55 AM 5.0 °F - 3.2 °F 92% 30.47 in 7.0 mi Calm Calm - N/A   Overcast
6:35 AM 5.0 °F - 3.2 °F 92% 30.48 in 10.0 mi Calm Calm - N/A   Overcast
6:54 AM 6.8 °F - 3.2 °F 85% 30.49 in 10.0 mi Calm Calm - N/A   Mostly Cloudy
7:58 AM 8.6 °F - 6.8 °F 92% 30.49 in 10.0 mi Calm Calm - N/A   Overcast
9:53 AM 8.6 °F - 6.8 °F 92% 30.52 in 4.0 mi Calm Calm - N/A Snow Light Snow
10:59 AM 8.6 °F - 6.8 °F 92% 30.52 in 7.0 mi Calm Calm - N/A   Mostly Cloudy
11:58 AM 10.4 °F - 6.8 °F 85% 30.49 in 10.0 mi Calm Calm - N/A   Scattered Clouds
12:54 PM 12.2 °F - 6.8 °F 79% 30.47 in 10.0 mi Calm Calm - N/A   Clear
1:52 PM 12.2 °F 6.1 °F 6.8 °F 79% 30.46 in 10.0 mi SE 3.5 mph - N/A   Clear
2:51 PM 12.2 °F - 6.8 °F 79% 30.46 in 10.0 mi Calm Calm - N/A   Clear
3:54 PM 10.4 °F 4.0 °F 6.8 °F 85% 30.46 in 10.0 mi East 3.5 mph - N/A   Clear
4:57 PM 10.4 °F - 5.0 °F 79% 30.47 in 10.0 mi Calm Calm - N/A   Clear
5:54 PM 5.0 °F - 3.2 °F 92% 30.48 in 10.0 mi Calm Calm - N/A   Clear
6:55 PM -0.4 °F -14.7 °F -0.4 °F 100% 30.50 in 10.0 mi North 8.1 mph - N/A   Clear
7:51 PM -2.2 °F -18.0 °F -4.0 °F 92% 30.51 in 10.0 mi North 9.2 mph - N/A   Clear
8:51 PM -5.8 °F -21.2 °F -7.6 °F 92% 30.52 in 10.0 mi North 8.1 mph - N/A   Clear
8:55 PM -4.0 °F -20.2 °F -5.8 °F 92% 30.52 in 10.0 mi North 9.2 mph - N/A   Clear
9:15 PM -5.8 °F -24.4 °F -7.6 °F 92% 30.52 in 10.0 mi North 11.5 mph - N/A   Clear
9:35 PM -5.8 °F -18.4 °F -7.6 °F 92% 30.52 in 10.0 mi NNE 5.8 mph - N/A   Clear
9:55 PM -2.2 °F -14.2 °F -5.8 °F 85% 30.52 in 10.0 mi NE 5.8 mph - N/A   Clear
10:15 PM -2.2 °F - -5.8 °F 85% 30.52 in 10.0 mi Calm Calm - N/A   Clear
10:35 PM -5.8 °F -18.4 °F -7.6 °F 92% 30.52 in 10.0 mi North 5.8 mph - N/A   Clear
10:55 PM -7.6 °F -22.1 °F -9.4 °F 92% 30.52 in 10.0 mi NNE 6.9 mph - N/A   Clear
11:15 PM -7.6 °F -20.6 °F -7.6 °F 100% 30.52 in 10.0 mi NE 5.8 mph - N/A   Clear
11:35 PM -9.4 °F -24.3 °F -9.4 °F 100% 30.53 in 10.0 mi North 6.9 mph - N/A   Clear
11:55 PM -5.8 °F -18.4 °F -7.6 °F 92% 30.53 in 10.0 mi North 5.8 mph - N/A   Clear